FW2264 Weather Reports


Display with metric or nautical units.
time (UTC)temp
F
wind
direction
speed
MPH
gust
MPH
rain 1hr
in
rain 24hr
in
rain mn
in
humidity
%
barometer
mb
20260510174752 64 63 1.0 3.0 0.00 0.00 0.00 46 1015.4
20260510174247 64 68 1.0 3.0 0.00 0.00 0.00 41 1015.4
20260510174002 64 136 1.0 4.0 0.00 0.00 0.00 45 1015.6
20260510173234 63 321 2.0 8.0 0.00 0.00 0.00 47 1015.6
20260510172959 63 344 2.0 8.0 0.00 0.00 0.00 47 1015.6
20260510172235 63 341 2.0 6.0 0.00 0.00 0.00 49 1015.5
20260510171734 63 26 2.0 6.0 0.00 0.00 0.00 48 1015.6
20260510171234 64 9 2.0 6.0 0.00 0.00 0.00 48 1015.6
20260510170734 63 28 1.0 4.0 0.00 0.00 0.00 47 1015.6
20260510170234 63 186 2.0 4.0 0.00 0.00 0.00 44 1015.9
20260510165734 64 265 2.0 5.0 0.00 0.00 0.00 46 1016.0
20260510165233 65 28 1.0 5.0 0.00 0.00 0.00 45 1016.0
20260510164732 64 259 1.0 4.0 0.00 0.00 0.00 46 1016.0
20260510164232 64 22 1.0 3.0 0.00 0.00 0.00 48 1016.0
20260510164217 64 167 1.0 3.0 0.00 0.00 0.00 45 1016.0
20260510163232 63 98 1.0 4.0 0.00 0.00 0.00 44 1015.9
20260510162731 64 178 1.0 4.0 0.00 0.00 0.00 41 1015.9
20260510162232 64 211 1.0 3.0 0.00 0.00 0.00 44 1015.9
20260510161730 63 11 1.0 3.0 0.00 0.00 0.00 48 1015.8
20260510161230 63 63 2.0 5.0 0.00 0.00 0.00 46 1015.6
20260510160730 63 9 2.0 5.0 0.00 0.00 0.00 47 1015.5
20260510160227 63 55 1.0 4.0 0.00 0.00 0.00 50 1015.6
20260510155727 62 195 1.0 4.0 0.00 0.00 0.00 48 1015.6
20260510155226 61 242 2.0 4.0 0.00 0.00 0.00 50 1015.5
20260510154946 61 303 2.0 3.0 0.00 0.00 0.00 50 1015.5
20260510154227 61 256 2.0 6.0 0.00 0.00 0.00 50 1015.4
20260510153726 61 262 2.0 6.0 0.00 0.00 0.00 49 1015.3
20260510153225 61 331 3.0 8.0 0.00 0.00 0.00 50 1015.3
20260510152727 61 5 2.0 8.0 0.00 0.00 0.00 52 1015.1
20260510152226 61 63 1.0 3.0 0.00 0.00 0.00 52 1015.2
20260510151722 61 30 1.0 3.0 0.00 0.00 0.00 53 1015.2
20260510151222 60 248 2.0 6.0 0.00 0.00 0.00 52 1015.1
20260510150722 59 355 2.0 6.0 0.00 0.00 0.00 54 1015.1
20260510150222 59 58 2.0 5.0 0.00 0.00 0.00 53 1015.0
20260510145722 59 0 2.0 5.0 0.00 0.00 0.00 53 1014.9
20260510145222 59 344 2.0 4.0 0.00 0.00 0.00 53 1015.0
20260510144721 59 51 2.0 5.0 0.00 0.00 0.00 53 1014.9
20260510144222 58 15 2.0 5.0 0.00 0.00 0.00 54 1014.7
20260510143947 59 12 2.0 6.0 0.00 0.00 0.00 53 1014.7
20260510143215 58 9 2.0 6.0 0.00 0.00 0.00 54 1014.6
20260510142709 58 14 2.0 7.0 0.00 0.00 0.00 57 1014.5
20260510142203 57 34 3.0 7.0 0.00 0.00 0.00 57 1014.5
20260510141922 57 355 2.0 5.0 0.00 0.00 0.00 56 1014.3
20260510141151 57 27 2.0 4.0 0.00 0.00 0.00 58 1014.5
20260510140907 56 347 2.0 7.0 0.00 0.00 0.00 57 1014.3
20260510140139 56 355 2.0 8.0 0.00 0.00 0.00 58 1014.2
20260510135903 55 0 2.0 8.0 0.00 0.00 0.00 61 1014.1
20260510135127 55 78 2.0 6.0 0.00 0.00 0.00 63 1014.0
20260510134621 54 0 1.0 5.0 0.00 0.00 0.00 65 1014.1
20260510134115 53 5 1.0 5.0 0.00 0.00 0.00 67 1014.1
20260510133609 52 355 2.0 4.0 0.00 0.00 0.00 68 1014.2
20260510133102 52 355 2.0 4.0 0.00 0.00 0.00 67 1014.1
20260510132556 51 12 2.0 5.0 0.00 0.00 0.00 67 1014.0
20260510132052 51 339 2.0 5.0 0.00 0.00 0.00 69 1014.0
20260510131545 51 28 2.0 4.0 0.00 0.00 0.00 68 1013.9
20260510131039 51 5 1.0 4.0 0.00 0.00 0.00 68 1013.9
20260510130533 51 338 1.0 3.0 0.00 0.00 0.00 70 1013.9
20260510130027 51 22 1.0 3.0 0.00 0.00 0.00 67 1013.9
20260510125521 51 348 1.0 3.0 0.00 0.00 0.00 70 1013.9
20260510125014 50 355 2.0 3.0 0.00 0.00 0.00 70 1013.8
20260510124509 50 5 1.0 3.0 0.00 0.00 0.00 69 1013.8
20260510124221 50 17 1.0 3.0 0.00 0.00 0.00 71 1013.6
20260510123457 50 9 1.0 3.0 0.00 0.00 0.00 71 1013.5
20260510122951 50 9 1.0 2.0 0.00 0.00 0.00 71 1013.6
20260510122708 50 10 1.0 2.0 0.00 0.00 0.00 72 1013.4
20260510121939 49 13 1.0 2.0 0.00 0.00 0.00 72 1013.4
20260510121433 49 11 0.0 2.0 0.00 0.00 0.00 73 1013.4
20260510121155 49 17 0.0 2.0 0.00 0.00 0.00 76 1013.4
20260510120421 49 17 0.0 2.0 0.00 0.00 0.00 74 1013.3
20260510115915 49 17 0.0 2.0 0.00 0.00 0.00 73 1013.3
20260510115854 49 17 0.0 2.0 0.00 0.00 0.00 73 1013.0
20260510114913 49 17 0.0 2.0 0.00 0.00 0.00 76 1012.7
20260510114411 49 0 0.0 1.0 0.00 0.00 0.00 78 1012.5
20260510113910 49 0 0.0 0.0 0.00 0.00 0.00 78 1012.7
20260510113636 48 0 0.0 1.0 0.00 0.00 0.00 77 1012.7
20260510113130 48 0 0.0 1.0 0.00 0.00 0.00 75 1012.6
20260510112408 48 0 0.0 1.0 0.00 0.01 0.00 75 1012.4
20260510112133 48 0 0.0 2.0 0.00 0.01 0.00 74 1012.2
20260510111403 49 0 0.0 2.0 0.00 0.01 0.00 74 1011.9
20260510110904 49 0 0.0 2.0 0.00 0.01 0.00 75 1011.9
20260510110611 49 0 0.0 2.0 0.00 0.01 0.00 77 1011.9
20260510110457 49 0 0.0 2.0 0.00 0.01 0.00 76 1011.9
20260510105359 49 0 0.0 2.0 0.00 0.02 0.00 74 1011.9
20260510104857 50 0 0.0 2.0 0.00 0.02 0.00 72 1011.9
20260510104616 50 0 0.0 2.0 0.00 0.02 0.00 71 1011.8
20260510103853 50 0 0.0 2.0 0.00 0.02 0.00 70 1011.4
20260510103351 51 9 0.0 2.0 0.00 0.03 0.00 69 1011.8
20260510102851 51 9 0.0 2.0 0.00 0.03 0.00 70 1011.8
20260510102351 51 0 0.0 3.0 0.00 0.03 0.00 69 1011.6
20260510101850 51 284 0.0 3.0 0.00 0.04 0.00 67 1011.4
20260510101347 51 315 0.0 2.0 0.00 0.04 0.00 69 1011.2
20260510100841 51 338 0.0 2.0 0.00 0.04 0.00 70 1011.1
20260510100335 51 51 0.0 2.0 0.00 0.05 0.00 70 1010.8
20260510095829 51 51 0.0 3.0 0.00 0.05 0.00 69 1010.5
20260510095323 51 72 1.0 3.0 0.00 0.06 0.00 67 1010.5
20260510095045 51 355 1.0 3.0 0.00 0.06 0.00 66 1010.5
20260510094530 51 355 1.0 3.0 0.00 0.06 0.00 69 1010.4
20260510093805 52 343 1.0 4.0 0.00 0.06 0.00 70 1010.2
20260510093504 52 22 1.0 2.0 0.00 0.07 0.00 72 1010.0
20260510093352 52 23 1.0 4.0 0.00 0.06 0.00 71 1010.2
20260510092521 52 30 1.0 3.0 0.00 0.07 0.00 73 1009.9
20260510091757 52 355 1.0 3.0 0.00 0.07 0.00 75 1009.8
20260510091257 53 355 1.0 3.0 0.00 0.08 0.00 75 1009.8
20260510090755 53 329 1.0 3.0 0.00 0.08 0.00 76 1009.8
20260510090255 53 342 1.0 3.0 0.00 0.09 0.00 76 1009.6
20260510085755 53 308 1.0 8.0 0.00 0.09 0.00 76 1009.7
20260510085515 54 342 1.0 8.0 0.00 0.10 0.00 76 1009.4
20260510084755 54 44 1.0 3.0 0.00 0.10 0.00 76 1009.3
20260510084512 54 346 1.0 2.0 0.00 0.11 0.00 76 1009.3
20260510084015 54 40 1.0 2.0 0.00 0.12 0.00 76 1009.2
20260510083510 55 261 1.0 2.0 0.00 0.12 0.00 75 1009.2
20260510082749 55 319 1.0 3.0 0.00 0.13 0.00 76 1009.2
20260510082247 55 265 1.0 3.0 0.00 0.14 0.00 75 1009.2
20260510081747 55 229 0.0 2.0 0.00 0.14 0.00 77 1009.0
20260510081247 55 286 0.0 2.0 0.00 0.15 0.00 76 1009.0
20260510080747 55 238 0.0 2.0 0.00 0.16 0.00 77 1009.1
20260510080247 55 190 0.0 3.0 0.00 0.17 0.00 79 1009.0
20260510075747 56 163 0.0 3.0 0.00 0.17 0.00 79 1008.9
20260510075726 56 167 0.0 2.0 0.00 0.18 0.00 78 1008.8
20260510074746 57 167 0.0 2.0 0.00 0.19 0.00 77 1008.8
20260510074247 57 175 0.0 2.0 0.00 0.20 0.00 77 1008.8
20260510073747 57 168 1.0 2.0 0.00 0.21 0.00 77 1008.9
20260510073247 57 188 0.0 2.0 0.00 0.22 0.00 76 1008.8
20260510072747 58 190 0.0 3.0 0.00 0.22 0.00 76 1008.8
20260510072247 58 189 1.0 3.0 0.00 0.23 0.00 75 1008.7
20260510071746 58 180 2.0 3.0 0.00 0.24 0.00 74 1008.7
20260510071247 58 186 2.0 4.0 0.00 0.25 0.00 74 1008.6
20260510070747 59 180 3.0 5.0 0.00 0.25 0.00 74 1008.6
20260510070512 59 180 4.0 7.0 0.00 0.26 0.00 73 1008.6
20260510065747 59 184 3.0 7.0 0.00 0.26 0.00 73 1008.6
20260510065247 59 186 3.0 6.0 0.00 0.26 0.00 74 1008.5
20260510064745 59 177 4.0 6.0 0.00 0.27 0.00 74 1008.7
20260510064725 59 175 3.0 6.0 0.00 0.27 0.00 74 1008.6
20260510064001 59 190 3.0 5.0 0.00 0.27 0.00 75 1008.6
20260510063232 58 171 3.0 5.0 0.00 0.28 0.00 76 1008.7
20260510062726 57 187 2.0 4.0 0.00 0.28 0.00 78 1008.7
20260510062444 58 171 3.0 4.0 0.00 0.28 0.00 77 1008.8
20260510061714 58 169 3.0 5.0 0.00 0.28 0.00 77 1008.7
20260510061208 58 166 3.0 5.0 0.00 0.28 0.00 76 1008.6
20260510060929 59 169 3.0 4.0 0.00 0.28 0.00 76 1008.6
20260510060156 58 167 3.0 4.0 0.00 0.29 0.00 76 1008.6
20260510055650 58 165 2.0 4.0 0.00 0.29 0.00 76 1008.5
20260510055144 58 166 2.0 3.0 0.00 0.29 0.00 76 1008.5
20260510054638 58 166 1.0 3.0 0.00 0.30 0.00 76 1008.4
20260510054133 57 166 1.0 3.0 0.00 0.31 0.00 76 1008.4
20260510053626 58 171 1.0 3.0 0.00 0.31 0.00 76 1008.4
20260510053120 57 167 1.0 3.0 0.00 0.32 0.00 77 1008.4
20260510052833 57 167 0.0 2.0 0.00 0.32 0.00 76 1008.4
20260510052108 58 167 0.0 3.0 0.00 0.33 0.00 75 1008.3
20260510051602 59 167 1.0 3.0 0.00 0.33 0.00 74 1008.3
20260510051323 59 167 2.0 4.0 0.00 0.33 0.00 72 1008.2
20260510050550 60 167 2.0 4.0 0.00 0.33 0.00 72 1008.2
20260510050044 60 170 2.0 4.0 0.00 0.33 0.00 71 1008.2
20260510045538 60 187 1.0 4.0 0.00 0.33 0.00 70 1008.3
20260510045032 60 189 1.0 4.0 0.00 0.33 0.00 71 1008.3
20260510044527 60 171 1.0 4.0 0.00 0.33 0.00 72 1008.2
20260510044020 59 173 1.0 3.0 0.00 0.33 0.00 73 1008.0
20260510043735 60 48 1.0 3.0 0.00 0.33 0.00 75 1008.2
20260510043008 60 261 1.0 3.0 0.00 0.33 0.00 73 1008.4
20260510042507 60 168 1.0 2.0 0.00 0.33 0.00 73 1008.0
20260510041956 60 168 2.0 2.0 0.00 0.33 0.00 73 1007.9
20260510041450 59 168 1.0 2.0 0.00 0.33 0.00 74 1007.8
20260510040943 59 169 1.0 2.0 0.00 0.33 0.00 75 1007.7
20260510040659 59 177 1.0 2.0 0.00 0.33 0.00 74 1007.7
20260510035934 59 180 1.0 2.0 0.00 0.33 0.33 74 1007.6
20260510035427 59 180 1.0 1.0 0.00 0.33 0.33 73 1007.6
20260510034921 59 180 1.0 2.0 0.00 0.33 0.33 73 1007.6
20260510034415 59 180 1.0 2.0 0.00 0.34 0.33 72 1007.5
20260510033909 60 162 1.0 2.0 0.00 0.34 0.33 72 1007.5
20260510033403 60 158 1.0 2.0 0.00 0.34 0.33 71 1007.5
20260510032857 60 158 2.0 2.0 0.00 0.34 0.33 70 1007.4
20260510032351 60 158 2.0 2.0 0.00 0.34 0.33 70 1007.5
20260510031845 60 158 2.0 2.0 0.00 0.35 0.33 71 1007.5
20260510031339 61 158 2.0 4.0 0.00 0.35 0.33 70 1007.4
20260510030833 61 159 2.0 4.0 0.00 0.35 0.33 70 1007.4
20260510030327 61 161 2.0 4.0 0.00 0.35 0.33 70 1007.5
20260510025820 61 163 2.0 3.0 0.00 0.36 0.33 69 1007.4
20260510025314 61 163 2.0 4.0 0.00 0.36 0.33 69 1007.4
20260510024808 61 157 2.0 4.0 0.00 0.36 0.33 69 1007.4
20260510024303 61 159 2.0 2.0 0.00 0.36 0.33 69 1007.4
20260510023757 61 162 2.0 4.0 0.00 0.36 0.33 69 1007.4
20260510023251 61 162 2.0 4.0 0.00 0.36 0.33 68 1007.3
20260510023012 61 161 2.0 4.0 0.00 0.36 0.33 68 1007.1
20260510022502 62 160 2.0 4.0 0.00 0.36 0.33 68 1007.0
20260510021733 62 160 2.0 3.0 0.00 0.36 0.33 67 1007.0
20260510021228 62 157 2.0 4.0 0.00 0.36 0.33 67 1006.8
20260510020721 62 157 2.0 4.0 0.00 0.36 0.33 67 1006.8
20260510020215 62 159 2.0 4.0 0.00 0.36 0.33 66 1006.8
20260510015709 63 157 2.0 3.0 0.00 0.36 0.33 65 1006.7
20260510015203 63 157 2.0 3.0 0.00 0.36 0.33 65 1006.6
20260510014657 63 157 2.0 3.0 0.00 0.36 0.33 64 1006.5
20260510014150 63 155 2.0 4.0 0.00 0.36 0.33 64 1006.5
20260510013644 63 154 2.0 4.0 0.00 0.36 0.33 63 1006.3
20260510013138 64 163 3.0 5.0 0.00 0.36 0.33 63 1006.3
20260510012633 64 155 3.0 5.0 0.00 0.36 0.33 64 1006.2
20260510012127 64 159 3.0 5.0 0.00 0.36 0.33 63 1006.2
20260510011621 64 157 3.0 5.0 0.00 0.36 0.33 62 1006.1
20260510011115 64 157 4.0 5.0 0.00 0.36 0.33 62 1006.0
20260510010609 64 160 4.0 5.0 0.00 0.37 0.33 62 1006.0
20260510005557 65 157 4.0 5.0 0.00 0.37 0.33 60 1005.9
20260510005051 65 159 4.0 5.0 0.00 0.37 0.33 61 1005.8
20260510004545 65 158 4.0 5.0 0.00 0.37 0.33 60 1005.8
20260510004039 65 157 4.0 5.0 0.00 0.37 0.33 60 1005.7
20260510003534 65 153 4.0 5.0 0.00 0.37 0.33 60 1005.7
20260510003027 65 160 4.0 6.0 0.00 0.37 0.33 60 1005.7
20260510003002 65 157 4.0 6.0 0.00 0.37 0.33 60 1005.6
20260510002015 65 163 4.0 6.0 0.00 0.37 0.33 59 1005.6
20260510001509 65 161 5.0 6.0 0.00 0.37 0.33 59 1005.5
20260510001003 66 161 6.0 10.0 0.00 0.37 0.33 57 1005.4
20260510000457 66 153 6.0 10.0 0.00 0.38 0.33 57 1005.4
20260509235951 66 155 5.0 7.0 0.00 0.38 0.33 60 1005.3
20260509235445 66 161 5.0 7.0 0.00 0.38 0.33 58 1005.3
20260509235202 66 159 5.0 7.0 0.00 0.38 0.33 57 1005.4
20260509234657 66 153 5.0 7.0 0.00 0.38 0.33 57 1005.2
20260509233937 66 159 5.0 7.0 0.00 0.38 0.33 58 1005.3
20260509233437 66 162 5.0 8.0 0.00 0.39 0.33 58 1005.3
20260509233145 66 156 5.0 7.0 0.00 0.39 0.33 58 1005.2
20260509233029 66 148 5.0 8.0 0.00 0.39 0.33 58 1005.2
20260509231937 66 157 5.0 7.0 0.00 0.39 0.33 58 1005.2
20260509231437 67 161 6.0 9.0 0.00 0.39 0.33 57 1005.1
20260509231156 67 169 6.0 9.0 0.00 0.39 0.33 56 1005.1
20260509230437 67 159 4.0 8.0 0.00 0.39 0.33 58 1005.1
20260509225937 67 159 4.0 7.0 0.00 0.39 0.33 59 1005.1
20260509225437 67 148 6.0 9.0 0.00 0.39 0.33 59 1005.1
20260509225159 68 158 6.0 9.0 0.00 0.39 0.33 54 1005.0
20260509224437 68 163 6.0 9.0 0.00 0.39 0.33 54 1004.9
20260509223937 68 166 5.0 9.0 0.00 0.39 0.33 54 1004.9
20260509223437 68 148 6.0 10.0 0.00 0.39 0.33 53 1004.9
20260509222933 68 163 5.0 10.0 0.00 0.39 0.33 54 1004.9
20260509222655 68 158 5.0 8.0 0.00 0.39 0.33 54 1005.0
20260509221933 68 155 6.0 8.0 0.00 0.39 0.33 56 1004.9
20260509221433 68 148 5.0 8.0 0.00 0.39 0.33 53 1004.9
20260509220934 68 165 5.0 10.0 0.00 0.39 0.33 53 1004.9
20260509220433 68 157 6.0 10.0 0.00 0.39 0.33 53 1004.9
20260509215933 68 161 6.0 11.0 0.00 0.39 0.33 57 1004.9
20260509215433 68 150 5.0 11.0 0.00 0.39 0.33 57 1005.0
20260509215151 68 130 4.0 7.0 0.00 0.39 0.33 57 1005.0
20260509214433 68 160 6.0 10.0 0.00 0.39 0.33 55 1005.0
20260509214152 68 154 6.0 10.0 0.00 0.39 0.33 55 1005.1
20260509213433 68 167 6.0 8.0 0.00 0.39 0.33 55 1005.2
20260509212931 68 167 6.0 10.0 0.00 0.39 0.33 55 1005.3
20260509212431 68 140 5.0 10.0 0.00 0.39 0.33 56 1005.2
20260509211931 68 147 5.0 8.0 0.00 0.39 0.33 56 1005.2
20260509211431 68 157 4.0 8.0 0.00 0.39 0.33 56 1005.2
20260509210931 68 159 5.0 9.0 0.00 0.39 0.33 58 1005.2
20260509210430 68 157 5.0 9.0 0.00 0.39 0.33 58 1005.3
20260509205924 68 164 4.0 9.0 0.00 0.39 0.33 57 1005.3
20260509205418 68 151 3.0 8.0 0.00 0.39 0.33 61 1005.3
20260509204912 68 155 3.0 8.0 0.00 0.39 0.33 59 1005.4
20260509204406 68 141 3.0 6.0 0.00 0.39 0.33 59 1005.3
20260509203927 68 157 4.0 8.0 0.00 0.39 0.33 57 1005.5
20260509203900 68 159 3.0 7.0 0.00 0.39 0.33 60 1005.4
20260509203548 67 142 4.0 8.0 0.00 0.39 0.33 59 1005.5
20260509202342 68 141 3.0 7.0 0.00 0.39 0.33 58 1005.6
20260509201836 68 144 3.0 8.0 0.00 0.39 0.33 58 1005.8
20260509201330 68 148 3.0 8.0 0.00 0.39 0.33 59 1005.7
20260509200824 67 142 3.0 8.0 0.00 0.39 0.33 58 1005.7
20260509200318 67 155 3.0 8.0 0.00 0.39 0.33 59 1005.8
20260509195812 68 144 4.0 8.0 0.00 0.39 0.33 57 1005.7
20260509195530 67 162 4.0 8.0 0.00 0.39 0.33 58 1005.9
20260509194800 67 166 5.0 9.0 0.00 0.39 0.33 57 1005.9
20260509194254 67 155 5.0 9.0 0.00 0.39 0.33 58 1005.9
20260509193748 67 165 5.0 9.0 0.00 0.39 0.33 57 1005.9
20260509193242 67 136 6.0 9.0 0.00 0.39 0.33 58 1005.9
20260509192956 67 163 5.0 10.0 0.00 0.39 0.33 57 1006.1
20260509192230 67 165 6.0 10.0 0.00 0.39 0.33 62 1006.1
20260509191726 67 153 5.0 10.0 0.00 0.39 0.33 61 1006.1
20260509191218 66 146 5.0 8.0 0.00 0.39 0.33 61 1006.1
20260509190935 66 155 5.0 8.0 0.00 0.39 0.33 60 1006.2
20260509190206 66 155 5.0 9.0 0.00 0.39 0.33 61 1006.2
20260509185700 66 157 4.0 9.0 0.00 0.39 0.33 59 1006.3
20260509185154 66 162 5.0 9.0 0.00 0.39 0.33 60 1006.3
20260509184648 66 163 6.0 9.0 0.00 0.39 0.33 67 1006.4
20260509184142 66 170 6.0 9.0 0.00 0.39 0.33 67 1006.5
20260509183636 65 157 5.0 8.0 0.00 0.39 0.33 61 1006.5
20260509183130 66 164 5.0 9.0 0.00 0.39 0.33 63 1006.5
20260509182623 65 161 5.0 9.0 0.00 0.39 0.33 66 1006.5
20260509182118 65 162 4.0 8.0 0.00 0.39 0.33 63 1006.6
20260509181612 64 171 5.0 7.0 0.00 0.39 0.33 65 1006.5
20260509181106 64 161 6.0 9.0 0.00 0.39 0.33 62 1006.6
20260509180600 64 163 7.0 9.0 0.00 0.39 0.33 62 1006.7
20260509180054 65 164 6.0 9.0 0.00 0.39 0.33 62 1006.7
20260509175547 64 153 6.0 9.0 0.00 0.39 0.33 66 1006.7
20260509175042 63 156 6.0 9.0 0.00 0.39 0.33 67 1006.8